Regional Weather Roundup
Issued by NWS

Home | Current Version | Previous Version | Graphics & Text | Print | Product List | Glossary On
Versions: 1 2 3 4 5 6 7 8 9 10 11 12 13 14 15 16 17 18 19 20 21 22 23 24 25 26 27 28 29 30 31 32 33 34 35 36 37 38 39 40 41 42 43 44 45 46 47 48 49 50
000
ASUS43 KMKX 250321
RWRWI

WISCONSIN REGIONAL WEATHER ROUNDUP
NATIONAL WEATHER SERVICE MILWAUKEE/SULLIVAN WI
1000 PM CDT FRI MAR 24 2017

NOTE: "FAIR" INDICATES FEW OR NO CLOUDS BELOW 12,000 FEET WITH NO
SIGNIFICANT WEATHER AND/OR OBSTRUCTIONS TO VISIBILITY.

WIZ001-002-006>008-014>016-023>028-250400-
NORTHWEST WISCONSIN

CITY           SKY/WX    TMP DP  RH WIND       PRES   REMARKS
SUPERIOR ARPT  CLOUDY    35  34  96 NE8       30.25R WCI  28
ASHLAND        CLOUDY    35  32  88 NE9       30.25S WCI  28
HAYWARD        CLOUDY    37  29  72 NE6       30.22R WCI  32
SIREN          CLOUDY    37  30  77 E7        30.21S WCI  31
CUMBERLAND     CLOUDY    34  30  86 NE8       30.19S WCI  27
RICE LAKE      CLOUDY    37  32  82 NE6       30.20S WCI  32
CHETEK         CLOUDY    37  32  83 NE5       30.19S WCI  33
LADYSMITH      CLOUDY    37  32  82 NE12G17   30.20S WCI  29
EAU CLAIRE     CLOUDY    39  34  82 NE8       30.16F WCI  33
MENOMONIE      CLOUDY    39  34  82 N8        30.17F WCI  33
NEW RICHMOND   CLOUDY    37  32  81 NE9       30.18S WCI  30
OSCEOLA        CLOUDY    38  32  78 NE9       30.21F WCI  32
$$

WIZ003>005-009-010-017-018-250400-
NORTH CENTRAL WISCONSIN

CITY           SKY/WX    TMP DP  RH WIND       PRES   REMARKS
MANITOWISH WTR CLOUDY    32  32 100 N5        30.20R WCI  28
ARBOR VITAE    CLOUDY    37  35  93 NE3       30.19R
WOODRUFF       CLOUDY    37  35  93 NE3       30.19R
RHINELANDER    CLOUDY    35  33  92 VRB7      30.18R WCI  29
EAGLE RIVER    CLOUDY    33  32  96 NE13      30.19R WCI  24
LAND O LAKES   CLOUDY    33  33  99 NE5       30.22R FOG     WCI  28
PHILLIPS       CLOUDY    33  32  94 NE9       30.19R WCI  26
TOMAHAWK       CLOUDY    34  31  88 CALM      30.18S
MEDFORD        CLOUDY    34  32  91 NE12      30.15S WCI  26
MERRILL        CLOUDY    35  33  92 NE8       30.18R WCI  29
$$

WIZ029-030-035-036-043>047-250400-
CENTRAL WISCONSIN

CITY           SKY/WX    TMP DP  RH WIND       PRES   REMARKS
WAUSAU         CLOUDY    36  33  89 NE7       30.15R WCI  30
MOSINEE        CLOUDY    36  36 100 NE10      30.17R WCI  28
MARSHFIELD     LGT RAIN  37  33  85 NE9       30.13R WCI  30
STEVENS POINT  LGT RAIN  35  35 100 NE14      30.15R WCI  26
WAUPACA        RAIN      38  37  92 N6        30.16R WCI  34
WAUTOMA        RAIN      36  35  96 VRB3      30.17R FOG
WISC RAPIDS    LGT RAIN  38  37  97 E8        30.16S WCI  32
CAMP DOUGLAS   LGT RAIN  37  36  93 CALM      30.14F
$$

WIZ011>013-019>022-031-037>040-048>050-250400-
NORTHEAST WISCONSIN

CITY           SKY/WX    TMP DP  RH WIND       PRES   REMARKS
ANTIGO         CLOUDY    33  32  95 NE10      30.17R WCI  25
SHAWANO        CLOUDY    38  34  88 NE12      30.18R WCI  30
OCONTO         CLOUDY    36  33  91 NE9G16    30.18R WCI  29
STURGEON BAY   LGT RAIN  35  33  92 N16       30.16S WCI  25
GREEN BAY      LGT RAIN  36  36 100 NE18      30.14S FOG     WCI  26
MANITOWOC      LGT RAIN  36  34  92 N9G18     30.14R WCI  29
APPLETON       LGT RAIN  36  36 100 NE15G22   30.12R WCI  26
CLINTONVILLE   DRIZZLE   36  36 100 NE12G17   30.16R WCI  27
OSHKOSH        CLOUDY    36  34  92 NE13      30.14R WCI  27
$$

WIZ032>034-041-042-053>061-250400-
SOUTHWEST WISCONSIN

CITY           SKY/WX    TMP DP  RH WIND       PRES   REMARKS
LA CROSSE      LGT RAIN  42  38  85 NE8       30.13S
SPARTA         LGT RAIN  38  37  95 E7        30.15S WCI  33
VIROQUA        CLOUDY    37  37 100 NE12      30.11R WCI  29
BOSCOBEL       CLOUDY    41  37  86 NE8       30.11R
PRAIRIE DU CHI DRIZZLE   40  38  96 N3        30.10R
PLATTEVILLE    CLOUDY    42  41  97 NE12      30.06R
$$

WIZ056-057-062-063-064-067-068-250400-
SOUTH CENTRAL WISCONSIN

CITY           SKY/WX    TMP DP  RH WIND       PRES   REMARKS
REEDSBURG      CLOUDY    37  37 100 NE6       30.13R WCI  32
BARABOO/DELLS  DRIZZLE   36  35  94 NE12      30.12S WCI  28
LONE ROCK      CLOUDY    40  35  83 NE9       30.13R WCI  34
MINERAL POINT  DRIZZLE   41  41 100 NE10      30.07S
MADISON        CLOUDY    38  35  89 NE9       30.11R WCI  31
MIDDLETON      CLOUDY    40  36  88 NE10G16   30.11R WCI  33
WATERTOWN      CLOUDY    38  37  95 NE10      30.11R WCI  31
MONROE         CLOUDY    39  37  93 NE16      30.05F FOG     WCI  30
JANESVILLE     LGT RAIN  43  41  93 E12       30.08S
$$

WIZ051-052-058>065-066-070>072-250400-
SOUTHEAST WISCONSIN

CITY           SKY/WX    TMP DP  RH WIND       PRES   REMARKS
MILWAUKEE      CLOUDY    38  34  85 N16       30.10R WCI  29
WAUKESHA       CLOUDY    36  32  87 N6        30.11S WCI  31
MILWAUKEE/TIMM CLOUDY    37  32  81 N15G24    30.12S WCI  28
RACINE         CLOUDY    37  34  89 N14       30.11R WCI  28
KENOSHA        CLOUDY    38  35  89 N9        30.10R WCI  31
FOND DU LAC    CLOUDY    37  33  85 NE9       30.14R WCI  30
SHEBOYGAN      CLOUDY    36  33  89 N14G23    30.13R WCI  27
WEST BEND      CLOUDY    36  36 100 NE9       30.13R WCI  29
JUNEAU         CLOUDY    37  34  90 NE8       30.13R WCI  30
$$

LSZ147-162-250400-
LAKE SUPERIOR

STATION/POSITION TIME  TEMP    WIND        PRES    WAVE
                       AIR SEA DIR/SP/G            HT/PER
                 (UTC) (F)     (DEG/KT/KT) (MB)    (FT/S)
DEVILS ISLAND    0300   35      80/ 17/ 18 1025.6F
PORT WING        0240   37      70/  7/ 10 1024.4S
SAXON HARBOR     0230   34      60/ 10/ 13 1023.7S
$$

LMZ867-665-643>646-250400-
LAKE MICHIGAN

STATION/POSITION TIME  TEMP    WIND        PRES    WAVE
                       AIR SEA DIR/SP/G            HT/PER
                 (UTC) (F)     (DEG/KT/KT) (MB)    (FT/S)
CHAMBERS ISLAND  0240   34      10/ 13/ 16 1021.7R
NORTHPORT PIER   0240   35     360/ 11/ 13 1022.4R
SISTER BAY       0236   36      10/ 11/ 15   N/A
KEWAUNEE LAKESHO 0254   36      20/ 13/ 20 1020.0S
SHEBOYGAN LAKESH 0300   36      20/ 17/ 18 1020.8R
PORT WASHINGTON  0241   38      30/ 13/ 20 1021.3R
MILWAUKEE LAKESH 0300   37     360/ 15/ 18   N/A
KENOSHA   LAKESH 0300   38     360/ 14/ 18 1019.6
$$

TC  - TEMPERATURE IN CELSIUS
VSB - VISIBILITY IN STATUTE MILES
WCI - WIND CHILL INDEX
HX  - HEAT INDEX





USA.gov is the U.S. government's official web portal to all federal, state and local government web resources and services.